Home   Weather   Rotherham   Past weeks
Flag for United Kingdom

Past Weather in Rotherham, England, United Kingdom — Yesterday and Last 2 Weeks

Now
47 °F

Cool.


Feels Like: 40 °F
Forecast: 53 / 42 °F
Wind: 20 mph from West

Location: Nottingham Weather Centre

Current Time: Dec 8, 2019 at 1:28:12 pm

Latest Report: Dec 8, 2019 at 1:00 pm


Visibility: 11 mi

Pressure: 29.35 "Hg

Humidity: 65%

Dew Point: 36 °F

Location of RotherhamLocation

Past Weather in Rotherham — Graph

°F

Rotherham Temperature Yesterday

Maximum temperature yesterday: 49 °F (at 12:00 pm)
Minimum temperature yesterday: 45 °F (at 9:00 am)
Average temperature yesterday: 47 °F

High & Low Weather Summary for the Past Weeks

 TemperatureHumidityPressure
High54 °F (Nov 26, 3:00 pm)100% (Nov 27, 9:00 am)30.46 "Hg (Nov 27, 9:00 am)
Low27 °F (Nov 30, 6:00 am)67% (Dec 8, 12:00 pm)29.00 "Hg (Nov 27, 1:00 pm)
Average43 °F92%29.80 "Hg
* Reported Nov 23 12:00 pm — Dec 8 12:00 pm, Rotherham. Weather by CustomWeather, © 2019

Note: Actual official high and low records may vary slightly from our data, if they occured in-between our weather recording intervals... More about our weather records

Rotherham Weather History for the Previous 24 Hours

Scroll right to see more
 ConditionsComfort  
Time TempWeatherWind HumidityBarometerVisibility
12:00 pm
Sun, Dec 8
47 °FCool.18 mph67%29.38 "Hg12 mi
11:00 am47 °FCool.15 mph71%29.38 "Hg11 mi
10:00 am45 °FCool.14 mph78%29.41 "Hg9 mi
9:00 am44 °FQuite cool.13 mph80%29.38 "Hg14 mi
8:00 am44 °FQuite cool.13 mph83%29.41 "Hg25 mi
7:00 am45 °FRain. Overcast.21 mph83%29.38 "Hg12 mi
6:00 am47 °FLots of rain. Overcast.15 mph89%29.35 "Hg2 mi
5:00 am50 °FCool.17 mph85%29.32 "Hg28 mi
4:00 am51 °FDrizzle. Overcast.17 mph96%29.32 "Hg4 mi
3:00 am50 °FLight rain. Overcast.17 mph93%29.32 "Hg2 mi
2:00 am49 °FCool.17 mph92%29.35 "Hg16 mi
1:00 am49 °FLight rain. Overcast.17 mph94%29.41 "Hg11 mi
12:00 am48 °FRain. Overcast.16 mph94%29.47 "Hg5 mi
11:00 pm
Sat, Dec 7
48 °FLots of rain. Overcast.16 mph88%29.54 "Hg6 mi
10:00 pm48 °FCool.14 mph88%29.59 "Hg28 mi
9:00 pm48 °FCool.14 mph89%29.65 "Hg25 mi
8:00 pm47 °FCool.9 mph90%29.69 "Hg12 mi
7:00 pm47 °FCool.12 mph87%29.72 "Hg14 mi
6:00 pm48 °FCool.9 mph85%29.77 "Hg25 mi
5:00 pm48 °FCool.12 mph82%29.78 "Hg18 mi
4:00 pm48 °FCool.10 mph82%29.80 "Hg19 mi
3:00 pm48 °FCool.9 mph79%29.80 "Hg17 mi
2:00 pm49 °FCool.10 mph79%29.82 "Hg17 mi
1:00 pm48 °FCool.10 mph78%29.84 "Hg14 mi
Weather by CustomWeather, © 2019

See weather overview

Advertising